Location: Balmoral
(33.0667°S, 151.5833°E)
Time: 00:50:37
(UTC+00:00)

ARGOS Delta rocket - Pass Details

Date: 18 September 2020
Orbit: 635 x 838 km, 96.5° (Epoch: 21 October)

Event Time Altitude Azimuth Distance (km) Brightness Sun altitude
Rises 19:13:14 0° 358° (N) 3,153 7.1 -8.0°
Reaches altitude 10° 19:15:31 10° 352° (N) 2,269 6.3 -7.5°
Maximum altitude 19:20:23 49° 277° (W) 1,009 4.3 -6.5°
Drops below altitude 10° 19:25:34 10° 202° (SSW) 2,416 6.4 -5.4°
Sets 19:28:05 0° 196° (SSW) 3,377 7.2 -4.9°
